Location: ???? ?????
(30.0052°N, 31.2891°E)
Time: 20:07:41
(UTC+00:00)

Iridium 16 - Pass Details

Date: 30 January 2023
Orbit: 765 x 769 km, 86.4° (Epoch: 01 April)

Event Time Altitude Azimuth Distance (km) Brightness Sun altitude
Rises 01:56:29 0° 128° (SE) 3,220 9.4 -36.9°
Reaches altitude 10° 02:01:24 10° 86° (E) 2,301 8.7 -35.8°
Maximum altitude 02:01:59 10° 80° (E) 2,289 8.7 -35.7°
Drops below altitude 10° 02:02:34 10° 73° (ENE) 2,303 8.7 -35.6°
Sets 02:07:29 0° 32° (NNE) 3,236 9.1 -34.5°
